Wind_Speed
20 20 20 20 20 20 19 19 18 19 18 18 18 18 17 17 17 17 18 16 15 13 11 10 8 8 6 7 6 5 9 12 11 12 11 9 12 10 8 17 18 21 23 21 24 19 11 10 8 9 8 3 2 1 3 5 1 1 1 2 0 3 3 5 8 6 4 4 5 6 7 8 5 4 2 1 2 1 2 2 1 1 3 3 5 13 23 26
20 20 20 20 20 20 19 19 19 18 18 18 18 17 17 16 16 16 17 16 14 13 11 11 9 8 6 5 3 6 7 9 8 8 14 9 7 12 12 18 21 24 26 24 27 21 12 10 9 9 5 1 2 1 2 3 3 1 1 1 3 4 4 5 8 7 4 4 6 7 7 8 7 6 4 2 3 3 3 4 1 1 2 6 10 19 23 25
21 21 21 21 20 20 20 19 19 18 18 18 17 17 16 15 16 15 16 16 14 13 11 11 10 8 7 4 2 6 7 7 3 6 13 11 10 14 15 19 22 26 23 21 29 26 17 15 11 9 4 1 1 1 1 2 3 2 1 1 5 6 4 4 7 8 6 3 6 5 5 6 6 6 4 3 3 4 6 6 5 6 5 7 9 16 21 22
21 21 21 21 21 20 20 20 19 19 18 17 17 16 15 15 15 14 15 15 14 13 11 11 10 9 8 5 2 8 7 6 1 5 10 14 14 16 16 18 22 27 21 18 26 21 14 15 11 7 3 2 2 1 3 3 3 2 3 4 4 3 4 5 7 8 5 3 5 5 4 5 4 4 4 5 3 5 8 9 11 11 9 11 9 13 18 19
21 21 21 21 21 21 20 20 19 19 18 17 17 15 15 14 14 14 14 14 13 13 11 10 10 10 9 6 2 9 6 4 2 5 12 17 16 18 17 16 22 27 22 20 23 14 10 13 8 4 2 2 2 1 4 5 4 2 5 7 6 3 3 5 7 8 5 3 4 5 5 4 3 3 5 8 6 7 7 10 14 11 10 13 13 14 15 16
21 21 22 22 22 21 21 21 20 19 18 17 16 15 15 14 13 13 13 13 13 12 11 9 8 10 10 5 3 7 3 2 4 7 13 18 17 18 17 17 24 25 20 22 20 11 9 10 5 3 2 2 3 4 3 5 6 2 5 6 6 5 4 3 4 7 6 6 5 6 4 3 4 4 5 9 11 9 1 5 11 8 10 14 15 14 13 14
22 22 22 22 22 22 22 21 20 20 19 18 17 16 15 14 13 13 12 13 12 12 11 9 7 8 9 4 4 3 1 3 5 9 15 19 17 17 17 19 25 23 20 21 17 9 6 8 6 3 2 3 4 6 4 4 7 4 5 6 5 5 7 4 4 6 7 7 6 4 3 4 7 5 3 9 16 10 2 3 7 7 10 14 13 13 13 14
22 22 22 23 22 23 22 22 21 20 19 18 17 16 15 14 13 12 12 12 11 11 10 8 6 7 7 2 3 3 1 4 4 11 17 21 18 17 19 23 27 23 21 22 18 11 7 8 8 4 3 5 4 5 4 4 4 6 7 6 3 3 6 3 5 6 6 5 2 4 3 6 7 2 2 10 14 10 3 6 7 9 10 11 11 13 12 12
23 23 23 23 23 23 23 22 21 20 20 19 18 16 16 15 13 13 11 11 11 10 9 7 6 6 5 1 2 2 3 4 3 13 20 23 20 20 22 25 29 25 20 20 18 13 8 7 9 7 4 5 3 4 4 4 2 8 10 7 3 3 3 4 5 6 5 3 4 4 7 5 1 2 7 12 11 6 6 7 7 10 9 10 11 12 12 12
24 23 24 24 23 24 23 23 22 21 20 19 18 16 16 15 13 13 11 11 10 9 9 6 5 5 4 1 2 0 4 4 6 16 22 24 22 23 25 25 31 27 19 17 17 15 10 8 8 6 3 3 4 4 4 5 4 8 11 8 5 5 1 4 3 4 3 3 4 7 7 4 2 1 7 9 5 7 8 7 7 9 9 10 11 11 12 12
24 24 24 24 24 24 23 23 22 21 20 19 18 17 16 15 14 13 12 10 9 9 8 5 4 3 2 3 4 2 3 3 10 19 22 24 22 25 27 27 32 30 21 14 18 22 13 7 4 1 1 2 5 5 3 6 4 5 8 5 4 4 0 3 3 3 3 2 5 6 4 5 1 3 12 8 5 9 9 8 8 9 8 9 11 10 10 10
24 24 24 24 25 24 24 24 23 22 21 20 18 17 16 15 13 13 12 10 9 8 7 4 2 2 2 3 3 5 4 4 9 18 21 23 20 21 24 27 30 31 26 15 16 24 17 7 3 1 3 3 6 6 3 4 2 2 5 3 4 6 3 3 3 4 5 2 4 6 4 8 5 10 17 6 6 8 9 9 8 8 7 7 8 8 8 9
25 25 25 25 25 25 25 24 24 23 21 20 18 17 16 15 13 12 11 9 8 8 6 3 2 1 2 0 3 4 6 6 7 17 21 21 17 19 23 26 28 28 29 18 9 14 18 12 6 4 4 3 5 5 4 2 2 1 3 3 2 6 5 6 2 5 5 3 6 8 3 8 9 16 14 3 7 8 8 8 8 7 6 6 7 7 7 9
25 25 25 25 25 25 25 25 24 23 21 20 18 18 17 15 13 11 10 8 8 7 5 3 2 2 2 3 4 4 7 4 8 18 22 19 13 15 20 23 26 27 25 17 5 2 10 15 10 5 4 5 6 7 6 5 3 1 1 2 1 1 5 7 1 6 4 3 7 7 3 9 12 13 8 5 7 9 8 8 8 7 7 6 6 7 7 9
25 25 25 25 25 25 25 25 24 22 21 19 18 18 17 14 11 8 6 6 6 6 6 4 4 3 3 5 5 5 5 2 9 17 20 20 15 10 14 21 24 25 22 18 11 3 3 8 8 4 5 5 4 5 5 4 4 2 1 3 2 2 5 8 4 8 6 2 5 6 3 9 13 11 6 7 9 9 9 8 8 8 8 8 7 8 8 8
25 25 26 25 26 25 25 25 23 22 20 18 18 17 14 10 6 3 1 2 5 7 6 4 4 4 2 3 3 4 3 4 6 11 16 23 19 6 8 18 17 17 18 17 15 9 6 4 3 3 3 3 2 1 2 4 4 3 1 3 4 3 3 5 5 6 8 3 3 6 4 6 9 7 3 4 9 8 8 7 8 9 9 9 8 7 8 7
25 25 26 26 26 25 25 24 22 20 18 18 16 12 7 3 5 6 7 7 8 8 5 4 4 2 1 3 2 4 5 6 5 6 11 19 21 8 5 10 7 9 13 13 12 9 6 4 2 2 1 2 1 3 3 3 4 4 2 2 4 5 4 4 5 4 7 6 5 8 6 11 13 6 2 3 7 8 7 7 8 8 8 9 8 8 8 8
26 26 26 26 26 25 25 24 21 18 17 17 12 5 4 8 9 10 11 11 9 7 4 2 3 2 3 3 2 3 4 4 4 4 7 11 19 14 4 3 1 3 2 3 6 5 3 2 1 0 2 4 1 4 2 3 3 4 4 3 4 4 4 6 6 3 7 6 6 7 8 16 20 12 3 4 6 8 8 7 6 7 8 8 8 9 9 9
26 26 26 26 26 25 24 23 20 16 16 13 5 1 4 4 4 5 7 7 5 3 1 2 2 2 3 5 5 5 5 5 5 5 7 8 13 13 4 3 3 3 3 3 1 1 2 0 2 0 2 2 3 4 5 6 6 6 6 3 5 6 6 9 7 5 9 6 7 9 11 15 19 17 7 4 6 7 7 5 6 7 8 8 8 9 10 11
27 27 26 26 25 24 23 22 17 14 16 11 2 2 2 3 2 1 4 1 4 3 2 4 4 2 4 5 4 5 7 5 5 4 7 9 10 8 0 3 3 4 1 2 4 2 1 2 4 5 7 6 5 6 6 5 3 4 4 3 6 6 8 10 6 5 10 7 9 13 13 14 17 18 8 4 5 6 7 7 7 8 8 9 10 10 12 12
27 27 27 26 25 24 23 20 13 12 14 11 7 5 3 2 2 2 6 5 7 5 4 6 5 5 8 6 3 2 3 2 4 3 6 10 10 8 1 1 3 2 3 3 3 3 3 3 7 8 7 6 6 6 5 4 2 3 3 4 7 4 8 13 6 4 9 6 6 8 9 14 17 17 8 3 6 8 10 11 10 11 10 9 10 11 12 10
27 27 27 27 25 23 22 16 10 9 11 14 14 8 4 2 2 2 2 3 8 5 5 6 3 7 11 9 7 3 3 1 5 4 7 10 6 5 2 3 5 4 2 1 0 4 4 6 11 9 4 4 5 6 3 3 3 3 2 2 6 3 5 11 6 1 7 5 3 4 7 12 15 13 9 6 9 10 10 12 12 12 11 10 11 12 11 8
27 27 27 27 25 23 21 12 6 8 11 15 14 8 3 7 6 0 3 1 7 4 3 4 3 5 7 6 7 7 4 3 3 4 9 12 3 4 5 4 5 2 1 2 4 3 4 7 8 3 2 1 3 2 2 2 2 3 3 2 6 4 1 5 5 3 2 3 1 3 4 7 9 8 10 11 10 10 9 9 9 9 11 12 12 11 10 10
27 27 27 27 25 23 19 8 4 8 8 9 10 8 10 11 8 3 3 1 4 5 4 5 4 5 5 3 7 11 3 4 3 3 11 14 4 3 5 5 5 1 4 6 7 5 8 10 3 2 1 1 4 6 1 2 4 4 6 5 6 7 4 7 4 5 3 3 0 3 3 6 6 5 10 8 3 8 8 5 7 8 9 9 9 9 10 11
26 26 27 27 25 23 15 3 5 10 6 4 5 9 13 11 8 2 2 1 3 6 4 3 2 4 5 1 8 9 1 2 5 6 12 15 8 4 2 3 4 4 7 5 5 5 9 9 2 2 6 2 3 7 2 4 3 4 5 10 10 9 8 8 3 5 4 5 3 2 4 5 6 4 10 6 3 8 5 4 9 8 7 7 8 9 9 9
26 25 26 26 25 24 11 2 7 11 3 2 3 10 12 10 7 1 3 4 2 5 2 1 1 1 3 1 5 4 3 4 7 6 10 14 11 6 2 2 1 4 5 5 3 3 6 5 2 4 5 1 1 4 5 6 2 4 5 8 8 6 7 8 2 4 1 4 4 1 4 4 7 6 8 6 7 10 6 5 9 5 6 8 8 7 7 8
25 25 26 24 24 23 9 0 10 8 1 1 6 10 10 10 7 1 2 6 3 4 0 1 0 1 2 2 3 4 2 6 4 3 6 12 9 3 2 4 1 3 4 4 1 3 3 3 2 2 2 2 1 3 6 7 6 4 5 2 1 4 6 6 3 3 3 2 5 4 4 1 5 7 7 6 7 11 9 8 9 5 6 7 5 5 7 8
24 24 25 22 22 19 8 5 10 4 0 6 9 10 11 9 4 1 5 4 2 2 1 1 1 1 2 0 3 4 4 3 1 1 2 9 7 3 2 7 5 5 3 5 3 5 3 2 3 3 2 2 4 5 7 7 3 8 5 4 3 3 4 4 2 2 1 1 5 4 2 2 5 7 6 6 5 9 10 10 10 8 6 4 3 5 7 9
24 24 23 21 20 13 7 9 9 3 4 9 9 10 11 7 2 4 5 1 2 1 1 1 1 2 3 2 1 3 3 2 1 3 2 4 3 3 3 7 5 4 2 4 5 6 3 5 6 5 3 4 7 7 8 8 4 5 1 3 3 3 2 2 1 1 2 3 4 6 2 2 5 6 6 5 4 7 9 9 8 7 5 5 6 7 8 8
24 22 21 21 18 11 8 11 7 3 6 9 9 11 8 4 3 5 2 2 2 1 1 1 1 1 2 2 3 4 2 2 3 3 3 2 2 4 2 3 5 4 1 2 3 6 5 3 3 3 5 6 6 4 6 8 6 1 2 3 4 5 4 4 2 2 2 3 6 7 2 2 3 5 3 2 4 6 8 9 8 7 5 4 6 6 8 8
23 20 19 19 17 10 7 6 3 3 7 9 9 8 4 2 4 5 3 4 2 2 1 2 3 3 3 1 4 3 1 3 3 1 1 1 3 4 1 0 3 3 3 5 4 5 7 5 2 4 5 4 2 3 1 2 1 2 2 2 4 6 5 4 5 4 1 4 5 6 3 4 3 5 4 4 7 7 6 8 10 8 6 4 4 6 7 8
22 19 16 15 14 11 7 4 4 7 8 8 7 4 3 2 1 3 4 3 2 1 1 1 3 3 3 2 3 3 2 2 2 2 3 2 2 2 3 4 3 2 4 4 4 5 5 5 4 4 4 4 3 2 4 4 4 5 3 4 2 4 4 3 4 2 2 5 4 4 2 3 4 5 5 6 7 7 6 6 7 7 6 5 4 5 5 7
21 18 14 11 12 12 10 6 6 7 8 7 4 4 6 3 3 5 3 2 1 2 1 1 3 4 2 2 3 3 1 2 3 2 3 2 2 4 3 4 7 4 1 4 1 4 4 7 5 2 4 3 6 3 3 3 2 4 5 4 3 0 2 2 4 3 4 4 3 3 2 2 3 3 5 5 5 6 6 5 4 4 3 4 4 3 3 5
20 16 13 11 11 11 9 6 6 6 7 4 3 5 5 3 4 3 2 2 2 2 1 1 4 4 1 1 3 2 1 2 2 3 2 1 1 3 3 3 5 4 2 2 1 1 1 6 4 3 2 1 6 7 5 4 3 4 5 6 4 4 3 3 4 3 4 4 3 5 2 1 1 2 4 4 5 4 5 5 5 6 5 4 4 5 4 4
19 14 11 9 7 5 4 4 6 5 3 2 5 4 4 4 3 1 2 4 2 2 3 2 2 4 3 3 3 1 1 2 1 3 2 2 3 3 3 4 4 4 4 3 3 1 1 5 8 4 1 4 5 4 5 6 2 3 3 5 2 4 5 2 3 4 2 2 3 4 2 3 3 4 3 3 3 4 6 6 8 9 7 6 6 6 5 5
19 11 6 4 1 1 1 3 5 4 1 5 5 2 4 3 2 3 2 2 1 2 5 4 3 4 4 4 4 5 3 1 2 2 0 1 3 4 3 4 6 7 6 4 3 1 1 5 7 4 3 5 6 4 5 4 2 1 2 3 4 4 6 3 1 1 4 1 4 2 2 5 3 2 2 0 1 5 7 6 8 8 6 7 7 5 5 5
20 11 4 3 3 4 3 2 4 3 3 6 4 4 4 2 3 3 1 2 2 1 3 2 1 1 1 3 3 5 4 2 2 1 1 2 2 4 4 4 5 10 10 6 3 3 2 5 7 3 5 7 4 2 1 1 4 4 2 5 3 2 4 4 0 3 4 0 4 2 2 5 2 1 3 6 6 6 7 6 7 8 7 7 6 5 5 6
18 8 4 5 3 5 4 4 4 3 4 4 2 2 2 2 2 1 1 2 1 2 3 2 1 0 1 0 3 5 3 2 2 1 1 2 3 3 3 3 3 7 9 6 3 3 3 3 7 3 4 6 4 5 4 5 2 3 4 3 2 2 0 1 1 1 1 1 4 4 3 3 3 3 3 5 5 5 6 6 7 9 8 5 5 6 6 7
11 3 4 7 2 4 5 3 2 4 5 3 3 2 2 2 3 3 2 2 1 1 1 2 1 2 1 2 3 4 2 0 0 1 1 0 2 2 1 1 2 4 5 8 5 2 4 1 6 5 3 2 5 4 2 4 3 1 1 1 2 3 4 2 2 2 1 1 2 3 4 3 5 5 3 3 5 0 3 4 5 5 4 3 4 5 6 6
4 2 2 7 3 6 4 1 2 5 4 3 3 2 1 2 3 4 4 2 1 1 1 1 0 2 3 2 2 2 2 0 1 1 0 1 1 4 2 1 3 5 4 7 6 2 3 2 4 6 4 3 3 1 2 3 2 1 1 1 2 1 1 1 1 2 2 3 2 1 3 5 6 4 5 6 4 3 5 3 3 1 2 2 3 4 6 6
3 3 2 6 4 8 2 3 2 3 3 2 2 2 2 1 2 4 3 3 2 2 2 2 2 2 3 2 2 2 1 1 1 1 1 1 1 2 3 1 3 3 2 3 3 3 2 3 3 4 5 3 6 5 3 4 5 5 3 3 3 2 1 1 3 3 1 3 3 4 2 7 5 3 5 6 3 5 5 5 4 1 2 2 3 4 5 6
2 2 1 2 3 6 4 4 0 1 3 2 2 3 1 1 1 3 3 1 1 2 1 1 3 3 3 3 2 1 1 1 1 1 1 2 2 4 4 6 4 3 4 3 4 4 3 4 2 4 4 6 10 7 2 3 5 5 2 2 4 3 3 4 3 4 1 2 2 4 1 6 5 3 4 3 1 4 4 4 5 3 2 2 3 4 5 5
2 0 1 4 3 5 5 3 2 2 1 3 2 2 1 1 1 2 3 2 1 1 1 1 2 2 2 3 1 1 1 1 1 1 1 2 3 6 6 7 5 2 3 1 3 2 2 4 2 3 5 6 8 5 2 1 4 3 2 1 3 2 3 6 5 3 3 3 2 2 2 5 5 4 2 2 3 4 2 3 4 3 2 1 2 3 4 5
1 3 2 6 2 4 3 1 1 1 3 3 3 3 3 1 2 2 2 2 2 1 1 2 3 1 2 2 1 2 2 1 1 2 1 1 4 6 5 5 5 1 1 3 4 3 1 2 3 1 4 6 7 7 6 5 3 1 3 3 2 3 4 4 2 2 1 3 5 4 3 6 5 4 3 4 4 4 1 2 3 3 2 1 2 3 4 5
2 1 2 6 4 3 2 2 4 1 2 2 2 4 3 2 3 4 5 4 3 3 1 3 3 1 2 1 1 2 1 1 1 2 1 1 4 6 5 6 6 4 2 1 3 3 2 3 4 3 1 1 2 2 3 4 3 1 4 5 1 3 5 3 2 2 1 3 4 4 3 4 4 2 3 3 3 3 1 1 2 2 1 1 2 3 3 4
2 1 1 5 5 4 2 1 3 2 0 2 2 3 1 2 4 3 5 3 4 3 2 3 2 2 3 1 1 2 2 1 1 2 2 3 4 4 6 7 6 8 8 7 6 4 3 2 3 6 6 6 5 6 5 2 2 3 6 6 2 1 4 5 4 2 4 3 1 4 5 4 3 2 2 2 3 3 3 3 3 3 2 2 2 3 3 3
2 1 0 1 2 3 2 3 4 2 0 1 0 2 2 2 4 2 1 2 2 2 2 1 1 2 2 1 0 1 3 4 4 2 1 3 4 5 7 5 4 11 12 7 5 3 5 3 1 5 4 6 7 6 3 1 3 5 6 7 4 1 4 6 4 4 5 5 1 6 5 6 6 5 5 6 5 4 5 5 5 5 4 3 3 3 1 3
1 1 1 1 1 0 1 3 3 2 3 0 2 2 4 3 4 3 3 4 3 2 1 2 4 3 3 3 3 1 4 3 3 3 2 3 4 5 8 5 4 11 11 5 4 4 6 2 1 2 2 3 4 5 4 2 4 4 4 7 7 1 5 6 3 4 4 5 4 6 6 5 5 5 6 8 7 7 7 7 6 5 4 3 3 3 2 2
1 1 1 1 1 2 1 2 3 2 4 4 2 3 4 5 5 3 3 4 4 4 3 2 4 7 4 2 5 3 1 1 0 3 3 3 3 3 5 5 4 8 8 6 5 2 5 1 2 1 2 4 2 4 4 3 3 3 4 5 3 1 5 6 3 2 4 5 3 4 6 4 5 5 6 6 5 4 3 3 4 4 5 5 5 4 3 3
1 1 2 2 2 0 1 2 2 3 4 5 3 3 3 4 5 5 4 2 3 5 5 2 5 8 4 5 6 4 3 3 3 4 2 2 3 1 2 2 3 6 8 5 4 2 3 1 2 2 2 5 6 3 4 3 1 1 4 6 5 5 5 5 2 2 4 4 3 6 4 3 5 3 3 2 3 5 4 4 5 5 6 6 6 6 5 4
2 1 0 2 2 3 2 2 3 4 3 4 2 2 4 3 5 6 4 2 2 2 3 4 6 6 2 5 6 4 4 4 6 8 6 3 3 1 1 2 2 4 7 4 3 4 4 2 2 4 4 4 7 6 7 5 4 6 7 7 5 3 2 1 1 2 5 5 5 7 3 4 4 2 4 3 5 7 6 6 6 6 7 7 8 8 6 6
4 1 1 2 2 3 3 2 3 3 1 2 3 3 3 3 5 4 2 2 0 2 2 5 5 2 1 4 4 2 5 6 8 9 6 5 6 5 4 5 5 3 2 2 2 2 2 3 2 4 3 4 7 5 5 5 7 5 4 3 3 3 0 1 2 2 4 6 6 4 4 5 4 4 5 4 5 5 6 7 6 7 8 9 9 8 7 7
Wind_Direction
10 9 8 8 7 7 6 5 5 5 6 6 7 6 4 2 1 4 5 11 16 15 18 14 15 19 20 24 35 94 152 172 170 175 197 234 223 211 182 183 175 165 169 160 154 149 144 177 200 185 185 213 225 248 170 188 206 50 55 85 212 197 203 195 189 193 184 211 195 181 178 182 204 188 173 110 149 184 134 213 240 77 49 92 140 141 146 151
8 7 5 5 4 4 3 3 2 1 3 3 5 3 3 1 357 360 0 5 11 11 13 10 12 13 16 28 54 111 134 160 163 202 221 228 210 202 187 181 177 170 168 162 161 155 150 185 195 173 181 228 203 186 130 157 169 153 85 112 239 207 209 203 188 192 193 198 184 179 184 193 196 170 163 176 210 187 173 237 228 144 65 92 125 135 145 151
5 4 3 3 1 1 0 0 360 358 359 359 1 1 2 360 355 355 356 360 4 7 7 4 7 7 10 15 96 136 134 128 143 248 223 208 189 189 186 184 182 175 172 171 172 168 166 175 172 164 176 241 198 191 173 144 161 175 139 241 247 219 236 229 191 199 211 187 168 179 182 201 201 156 158 180 188 195 204 215 194 206 179 133 138 140 148 154
3 2 1 0 359 359 358 358 357 355 355 355 356 357 359 358 354 350 351 354 356 2 1 1 1 360 6 359 101 157 150 104 241 242 192 190 183 179 184 190 184 177 178 177 171 167 158 155 156 163 164 232 247 238 230 191 155 165 171 221 248 211 246 234 197 202 210 173 162 161 159 215 208 155 174 157 155 234 225 211 198 201 176 152 155 150 154 159
1 360 359 358 357 356 355 355 353 352 351 351 352 352 355 355 352 347 346 348 349 354 355 359 357 355 3 359 115 165 153 70 235 206 175 181 178 178 184 189 179 175 176 168 162 152 134 143 150 168 176 241 243 251 236 200 170 215 220 234 253 229 265 246 192 187 175 130 143 152 174 203 158 172 197 164 181 231 224 212 203 194 167 157 158 156 159 164
359 358 357 355 354 353 353 352 351 350 347 347 347 348 351 349 348 345 340 341 343 346 347 354 354 352 360 16 121 163 142 16 221 189 178 176 175 180 179 182 176 172 173 161 158 153 136 143 152 172 216 248 220 221 240 197 173 239 254 244 248 219 241 262 170 175 156 135 166 181 189 153 146 230 212 184 214 227 207 199 196 179 156 156 152 156 165 170
357 356 355 353 352 351 349 349 348 347 345 344 344 344 345 344 343 341 336 336 335 339 340 346 351 350 360 51 122 135 102 283 228 176 177 173 173 179 174 177 174 170 170 160 159 168 148 154 174 180 216 253 231 228 240 193 180 224 268 272 263 205 217 233 148 169 166 170 189 156 136 168 193 229 193 202 229 229 67 93 163 142 140 150 151 163 173 175
356 355 353 351 350 348 347 345 345 344 343 341 341 340 339 338 336 333 333 329 327 332 333 339 346 348 0 79 122 24 332 268 217 165 170 169 169 171 168 173 175 173 174 171 168 170 161 171 187 177 210 241 219 218 216 165 183 224 246 268 283 208 213 182 135 169 181 189 140 112 184 213 204 236 258 228 236 230 132 88 121 122 135 154 164 171 173 177
354 353 351 350 348 346 344 343 342 341 340 338 337 337 335 333 329 325 324 320 319 321 325 333 334 347 3 95 102 11 271 288 188 164 165 168 169 168 170 174 178 178 178 183 176 165 169 186 200 194 217 251 229 230 192 157 222 224 230 253 285 276 222 135 151 175 189 201 107 160 233 263 261 337 283 250 236 213 128 109 125 129 147 166 174 176 173 178
352 351 349 348 346 344 342 341 339 338 337 335 334 335 333 328 321 316 311 310 309 307 317 322 322 353 8 35 79 55 291 320 170 164 165 171 168 168 177 179 179 180 182 188 184 181 186 188 197 202 235 278 265 259 179 177 220 208 222 246 268 282 229 133 184 177 177 221 161 195 238 287 325 80 264 257 201 161 133 131 144 143 162 174 179 181 175 179
351 349 348 346 345 342 341 339 337 336 334 332 332 332 331 325 313 305 298 299 297 295 303 306 317 344 6 70 101 190 316 343 172 165 169 177 174 177 186 184 182 184 183 185 196 198 195 190 191 163 214 267 291 295 214 200 207 188 198 224 282 311 330 144 189 184 158 227 188 182 265 292 360 190 241 246 133 148 148 150 158 157 171 177 181 181 179 182
349 348 346 345 343 341 340 338 336 335 331 330 329 330 329 318 303 294 290 290 285 283 285 291 301 300 6 70 164 227 318 339 188 173 173 182 187 194 195 190 189 191 190 190 208 209 202 202 229 275 247 314 319 303 267 211 162 154 155 174 307 345 325 221 188 172 164 210 162 127 319 282 216 224 239 224 124 148 150 158 166 165 170 174 180 178 182 184
348 347 345 343 342 341 340 338 336 333 330 329 328 330 326 312 301 291 288 283 270 267 265 262 255 245 47 312 241 254 306 320 204 181 177 184 192 197 197 196 197 200 200 196 206 218 214 217 228 243 264 307 293 281 305 347 74 87 101 129 317 358 316 256 184 136 160 186 142 121 315 273 235 234 237 158 136 152 151 170 167 164 167 168 178 176 184 186
348 346 344 343 342 341 340 338 335 332 329 328 328 330 320 308 303 292 284 272 254 249 234 202 208 154 87 260 273 315 309 302 199 190 183 182 181 187 197 201 202 205 207 206 210 242 213 216 223 251 273 243 258 295 325 356 31 36 32 57 42 341 281 284 278 137 163 196 146 134 241 267 267 252 227 162 164 161 170 183 165 165 166 166 179 178 185 191
349 346 344 343 342 341 340 338 335 332 330 328 330 327 316 310 308 296 278 256 232 209 191 164 176 138 53 282 279 334 321 206 201 207 199 192 177 173 200 204 207 209 209 217 227 239 197 206 212 240 272 239 243 304 321 349 6 28 8 322 341 218 258 305 288 172 177 226 149 149 217 265 278 276 242 187 173 170 186 186 166 170 166 168 182 183 189 192
349 347 344 342 342 341 340 339 336 333 329 328 330 325 315 315 320 306 222 192 163 160 161 150 164 142 73 286 292 334 276 201 217 221 212 207 194 171 195 198 206 212 216 230 235 238 237 220 210 219 261 263 202 189 12 15 345 1 63 264 275 247 277 315 286 202 170 138 178 199 235 273 270 286 310 184 175 176 187 185 175 173 169 175 180 185 192 190
350 347 344 343 343 341 341 340 337 334 332 330 330 327 331 31 79 88 98 113 128 133 133 135 138 127 290 285 310 301 247 225 242 228 217 215 207 198 151 173 186 197 211 229 225 223 223 206 214 221 310 345 134 105 38 358 319 327 360 260 250 243 271 296 298 261 163 148 200 216 243 263 258 267 35 145 172 176 191 193 185 176 174 181 179 187 195 195
350 347 344 343 342 343 343 341 340 339 335 334 334 348 78 98 96 89 95 111 119 104 94 111 92 68 273 266 262 262 259 258 272 245 221 215 211 211 181 115 114 155 183 237 200 190 193 190 128 97 360 351 11 96 97 252 233 269 275 275 278 268 254 259 278 236 166 178 213 205 239 256 262 266 224 171 172 183 204 189 179 189 183 183 183 190 197 199
349 348 344 343 343 344 344 343 344 346 341 341 344 102 102 94 90 92 92 106 126 110 127 219 134 128 239 253 258 272 291 294 288 246 207 198 201 205 218 4 22 45 26 356 293 207 171 276 13 229 274 275 228 159 175 218 203 231 260 237 268 289 274 257 258 206 170 184 222 210 229 247 261 267 248 197 180 189 211 183 176 196 189 188 191 196 199 204
349 347 344 343 343 344 346 344 348 357 354 358 47 128 61 17 17 350 349 8 206 203 189 215 192 206 265 260 280 304 303 285 260 238 200 191 170 155 140 1 29 20 29 235 284 309 79 317 278 238 235 225 211 193 198 230 219 249 291 289 263 271 283 277 268 209 168 174 231 220 229 247 257 267 260 187 193 202 209 201 196 199 197 197 196 200 202 208
348 347 344 343 343 344 348 345 354 13 12 30 66 84 89 74 70 306 320 304 259 246 231 232 210 243 263 258 282 338 354 294 259 261 187 181 148 133 251 69 105 310 254 208 260 311 4 292 256 244 233 210 196 205 224 258 271 271 278 294 285 250 266 281 278 202 170 177 244 214 225 250 253 264 277 169 203 221 211 205 207 204 202 201 200 206 206 206
347 346 343 342 342 344 347 348 3 23 38 59 68 82 107 64 30 271 280 308 291 261 226 254 254 265 267 262 251 203 79 340 289 298 171 159 138 170 213 96 151 227 279 89 328 309 317 265 258 259 232 191 198 205 220 253 239 246 238 277 287 261 265 289 305 168 173 193 264 182 201 249 257 267 277 234 221 234 218 206 211 206 200 204 203 207 206 195
346 345 343 342 341 343 347 352 16 33 51 61 64 74 39 357 1 8 164 257 296 280 221 234 222 246 269 268 220 174 132 196 254 285 172 150 142 184 146 129 183 209 19 157 190 229 270 251 249 253 166 142 288 231 123 342 287 213 212 244 275 282 332 288 315 33 158 201 230 165 197 264 275 279 272 248 229 247 240 214 215 205 203 209 204 204 202 192
345 345 343 341 341 342 348 358 38 30 38 60 65 44 10 357 6 73 151 210 295 288 237 211 201 209 240 273 176 159 155 192 196 252 175 151 125 151 155 167 160 193 240 196 184 204 253 254 237 34 356 136 292 296 28 338 297 224 204 208 249 268 234 231 274 29 8 311 85 80 23 302 287 285 273 268 239 256 255 222 226 215 210 212 199 202 201 193
345 345 343 342 341 342 346 17 34 11 8 81 67 5 2 360 356 60 134 44 305 294 274 217 236 221 226 172 164 170 134 214 213 209 175 160 148 133 180 176 137 221 230 173 164 217 260 260 197 282 277 185 226 279 228 186 265 290 220 204 222 248 250 254 290 66 39 315 281 77 43 296 302 294 264 288 331 274 263 223 234 221 206 210 201 202 199 191
345 344 343 343 342 343 350 98 1 354 358 104 12 344 355 358 350 136 121 42 317 284 301 201 218 214 229 162 170 159 58 284 242 191 173 175 166 134 146 192 127 225 203 148 165 218 263 277 141 208 252 151 180 269 229 178 133 313 235 194 203 226 253 269 259 123 154 292 297 77 132 256 311 305 269 300 314 291 299 269 256 235 206 218 211 196 187 186
343 343 342 342 345 348 354 25 340 342 107 340 333 338 347 351 347 188 103 34 320 267 222 247 328 120 219 201 154 127 152 272 275 156 175 182 175 95 149 212 227 220 178 126 249 244 230 298 27 143 117 114 190 263 233 159 118 256 251 101 321 266 265 262 222 169 213 252 339 5 121 175 302 286 288 323 317 307 315 300 291 280 232 237 231 190 178 186
341 342 341 339 343 347 345 336 337 339 276 320 324 333 338 341 340 105 82 60 285 271 146 264 280 192 313 317 158 167 208 274 16 279 233 169 171 71 176 221 199 201 181 131 227 260 206 220 228 185 116 164 219 226 198 144 133 257 264 41 359 294 272 262 242 240 230 30 333 307 150 157 273 281 315 345 337 323 319 308 305 293 260 234 210 186 180 191
339 341 339 335 338 344 340 325 319 297 309 319 321 327 331 332 344 72 77 119 267 353 142 295 303 278 338 25 220 257 285 358 69 279 359 133 176 75 165 214 168 176 213 148 219 258 236 218 205 176 170 221 236 221 173 156 205 252 287 52 41 43 31 33 58 224 28 19 282 252 194 161 269 296 337 2 358 323 309 299 297 300 280 198 176 177 180 192
337 339 337 331 332 336 326 312 295 271 314 318 319 324 329 345 55 73 86 224 262 313 232 318 323 319 27 47 305 306 271 281 303 327 26 95 351 35 141 182 103 120 285 352 261 259 275 266 181 174 206 211 237 235 170 181 214 268 13 346 358 7 16 28 39 78 40 323 260 248 216 128 271 295 318 332 301 290 297 301 312 329 308 210 172 174 180 191
335 337 333 326 322 319 313 310 299 303 313 318 322 329 347 32 65 99 189 238 264 292 350 341 318 2 26 293 280 296 197 256 307 19 50 54 31 31 58 233 58 59 354 334 299 296 320 316 245 247 234 187 227 291 246 184 175 76 53 29 353 334 355 4 351 32 20 268 261 259 226 148 213 276 284 279 276 280 292 298 311 320 293 241 189 184 185 195
334 333 327 317 307 294 278 276 297 300 307 321 332 359 78 72 56 167 233 296 302 279 9 272 292 343 345 304 258 244 175 235 271 150 171 163 127 178 193 194 175 51 337 278 287 335 316 268 268 306 267 180 160 297 328 4 62 104 116 80 39 316 351 346 314 338 248 251 266 282 262 175 222 249 265 291 307 319 327 313 309 309 289 268 239 213 204 203
334 331 322 306 293 286 278 279 287 289 302 321 345 48 82 105 220 210 238 313 237 267 317 203 298 312 304 320 281 260 223 234 231 160 169 147 150 237 250 200 172 144 255 233 284 349 308 296 314 329 279 201 150 170 279 312 87 135 153 132 139 149 43 312 286 301 282 264 267 296 309 276 287 260 234 270 314 331 346 352 345 349 349 324 308 297 264 235
336 332 318 300 291 287 280 270 261 272 298 330 63 75 96 157 227 219 229 256 246 298 327 253 311 328 345 284 267 260 296 266 205 135 157 132 131 256 273 237 179 135 119 173 202 184 268 308 285 191 255 183 167 191 195 162 148 177 168 139 147 154 157 244 247 235 272 279 286 309 314 197 254 258 225 252 297 346 13 10 26 32 26 17 11 4 337 294
338 331 313 300 295 286 261 223 218 235 277 43 73 90 151 192 239 183 213 261 276 313 313 301 17 30 356 304 300 325 219 264 360 106 156 178 183 209 216 219 195 138 124 165 231 177 128 266 254 247 252 165 189 217 152 117 121 242 144 111 158 178 160 197 198 181 207 309 294 302 278 208 215 254 254 248 290 22 26 11 32 29 12 29 34 13 353 327
342 341 322 310 318 129 146 183 197 207 151 82 89 159 197 208 206 160 190 267 285 323 335 346 45 60 345 309 331 354 7 323 356 41 253 226 207 210 217 219 192 169 161 162 210 177 97 269 269 306 299 210 207 210 163 152 182 206 123 167 224 181 131 125 243 5 65 57 281 285 271 299 328 269 259 95 23 36 28 13 36 33 11 34 32 360 347 336
346 356 9 12 74 118 114 130 157 157 95 90 122 199 223 212 184 177 242 309 294 360 51 29 360 92 331 315 309 323 353 17 10 22 264 285 248 209 230 255 194 189 193 177 206 205 159 275 280 291 281 266 236 157 121 176 138 122 194 215 208 103 90 99 139 349 39 196 282 335 278 302 9 245 315 14 14 20 21 11 32 32 25 31 13 343 339 330
340 350 19 23 75 125 102 102 120 102 81 93 144 224 213 192 204 213 291 322 303 37 82 155 235 165 146 235 278 299 342 24 6 5 202 307 285 207 213 266 212 207 211 185 210 229 149 264 290 259 235 290 345 67 29 342 41 141 199 186 113 121 120 42 134 236 360 261 287 322 303 271 197 225 328 1 338 353 14 13 31 30 25 19 343 332 335 332
339 360 21 3 26 136 115 118 111 59 77 126 193 230 211 226 263 250 250 314 347 91 85 209 227 355 278 194 231 287 325 40 15 16 125 85 279 251 193 226 271 268 219 173 186 216 129 158 290 270 222 313 358 48 47 315 325 360 180 53 30 144 159 155 145 166 195 220 266 310 326 286 229 220 195 244 268 360 63 39 44 32 15 357 332 335 335 336
6 67 355 346 28 149 146 119 40 57 88 174 198 212 251 258 277 257 231 253 264 169 206 217 170 333 277 246 240 269 295 189 149 123 200 172 264 301 292 180 298 295 210 171 185 192 102 137 256 283 313 357 334 326 147 176 167 75 354 296 312 342 160 215 74 97 139 154 183 247 303 274 253 217 192 229 247 152 134 115 97 68 20 1 345 345 334 331
27 57 327 349 88 148 128 30 48 72 110 166 191 219 277 286 295 295 254 225 225 223 202 195 208 232 243 268 285 249 290 346 150 156 251 209 147 287 271 251 293 280 140 136 190 190 156 160 204 291 331 321 261 249 180 167 170 163 173 196 199 191 189 248 310 323 105 130 164 165 234 269 261 209 212 234 209 158 150 134 132 120 50 26 3 354 331 322
56 75 272 357 136 158 67 48 63 70 126 173 218 218 269 344 284 304 314 311 235 247 321 230 222 215 213 226 245 224 219 308 273 134 220 241 176 208 265 335 325 203 138 137 212 198 143 120 156 268 271 258 263 264 207 184 176 155 140 149 156 143 129 152 229 267 121 110 145 138 197 269 266 243 245 259 163 142 145 137 130 112 75 38 11 349 327 319
75 359 313 37 151 170 62 42 300 3 168 242 280 241 257 329 240 292 329 338 285 262 5 299 230 203 218 222 200 208 207 203 209 152 224 255 244 226 258 331 339 145 121 146 207 185 129 109 112 281 292 299 301 313 357 89 117 102 5 99 145 160 145 154 183 187 146 162 153 115 260 266 280 305 326 38 79 106 130 142 129 124 121 61 358 328 326 327
14 268 304 18 65 162 76 58 194 346 293 304 343 309 301 245 209 229 237 257 261 170 55 265 236 209 243 219 125 216 224 159 221 307 325 234 270 267 278 334 347 35 160 210 181 157 175 140 117 17 335 337 340 349 354 355 30 76 272 264 186 146 113 110 139 118 158 209 152 129 236 254 280 328 45 89 99 103 129 151 131 136 144 134 305 305 322 329
352 209 266 342 16 99 111 162 145 150 291 345 345 300 315 300 244 214 200 235 241 182 180 257 249 289 273 251 40 278 262 118 214 318 350 283 284 292 321 348 353 2 334 217 138 124 141 133 124 129 180 249 306 301 286 304 327 324 273 281 271 146 137 134 131 117 210 227 137 139 214 253 283 334 64 106 118 112 200 202 128 134 152 184 275 293 315 332
28 109 289 331 7 50 80 145 95 111 130 31 343 285 272 289 287 232 187 224 241 203 217 261 275 330 316 325 337 290 317 5 351 12 356 311 287 284 322 341 350 356 6 31 46 76 105 77 114 142 162 181 196 220 227 240 305 300 288 291 313 147 153 129 109 148 190 166 156 219 190 165 213 208 134 200 183 165 218 203 160 180 198 211 256 281 311 337
57 108 139 350 353 20 38 21 36 52 344 106 253 316 348 308 312 320 197 231 236 211 226 251 37 26 285 285 118 306 339 348 354 9 334 304 280 282 315 332 356 355 360 19 23 66 96 32 34 146 182 202 195 219 247 219 237 253 268 286 312 32 134 121 134 209 167 111 305 259 184 154 200 199 179 203 208 203 214 206 195 199 202 214 241 265 307 340
50 123 180 151 180 168 54 5 360 9 356 15 180 356 12 6 353 349 307 315 349 15 22 28 17 357 261 220 160 68 353 358 1 342 317 320 314 324 340 343 1 360 2 9 8 79 106 32 298 155 289 261 202 239 271 227 234 250 267 285 300 254 149 131 164 218 143 119 225 229 165 166 220 206 191 202 201 199 202 200 196 188 187 207 228 247 263 310
39 67 310 4 122 175 205 313 317 29 29 20 31 23 20 9 358 333 295 325 352 359 28 57 332 328 325 147 128 98 3 129 122 303 300 335 327 347 4 340 329 356 8 11 360 75 117 348 268 175 340 327 282 265 279 269 260 297 314 301 315 119 135 116 137 208 113 111 174 158 146 209 244 204 201 217 207 184 168 171 184 186 195 209 219 233 243 254
38 69 317 14 53 263 255 329 8 80 42 18 26 7 2 16 5 337 313 351 5 344 10 39 305 313 344 64 93 119 180 168 188 241 237 360 337 12 50 285 285 347 3 9 350 6 86 8 283 111 57 322 311 318 326 311 224 88 1 353 27 59 79 84 118 164 103 82 71 89 105 273 271 185 168 194 153 126 129 172 199 207 207 210 221 232 236 238
355 226 275 81 46 347 338 352 40 85 45 11 22 336 341 12 1 331 303 319 71 31 351 327 299 296 336 59 80 133 203 212 218 233 227 215 256 295 360 244 238 350 351 353 352 1 42 28 343 60 66 301 305 343 346 348 60 64 19 0 6 28 82 94 259 182 140 124 90 79 94 260 257 159 117 120 136 136 157 188 203 219 218 215 220 225 226 229
10 322 360 98 87 359 360 360 24 73 91 345 340 324 325 325 330 337 312 287 55 89 344 315 302 291 47 43 41 348 286 266 243 245 244 234 248 260 272 267 261 285 325 351 8 12 59 48 10 58 70 282 295 332 354 21 42 19 328 303 289 300 214 144 294 260 167 143 126 137 205 230 220 168 129 129 149 156 175 191 200 214 217 220 225 225 224 228
Height
809 808 806 805 804 802 801 799 798 796 795 794 792 791 789 788 786 785 785 784 783 782 781 780 779 780 780 779 779 778 779 780 781 782 781 776 774 776 778 779 781 783 785 787 789 792 794 797 797 798 800 801 802 802 801 800 800 807 817 823 823 824 821 812 811 810 806 801 799 800 799 802 804 801 796 795 799 801 802 801 799 798 797 798 798 797 799 802
809 808 806 805 804 803 801 800 798 796 795 794 793 792 790 789 787 786 785 784 784 782 782 781 780 780 779 780 780 779 780 780 782 781 776 773 774 776 777 778 780 781 783 785 787 789 793 796 796 798 802 805 804 802 804 801 803 812 820 825 821 815 807 799 799 800 798 797 796 797 797 799 800 799 797 801 806 804 806 806 802 803 801 800 798 799 801 802
809 808 807 805 804 803 802 800 798 797 795 794 793 792 791 789 787 786 785 784 783 783 782 781 781 780 780 780 779 781 780 781 784 779 771 771 773 774 776 777 778 779 780 782 784 786 789 792 795 799 803 808 805 804 807 804 805 810 818 825 814 804 800 794 794 794 794 792 794 798 797 798 796 795 797 803 807 805 807 805 804 805 803 802 801 800 802 803
809 808 807 805 804 803 801 800 798 797 795 794 793 792 791 789 788 786 785 784 783 783 782 781 781 780 780 779 780 781 779 784 784 773 769 771 772 774 776 777 778 780 781 782 784 788 790 792 796 798 805 811 806 804 808 805 805 809 814 817 804 798 799 791 790 791 790 791 794 797 798 799 795 793 797 801 808 808 802 798 797 798 798 801 801 800 802 803
809 808 806 805 804 803 801 800 798 797 795 794 793 792 791 790 788 787 785 784 783 783 782 782 781 780 780 778 780 779 781 794 783 766 769 771 772 774 776 777 779 782 783 785 788 791 793 794 797 800 806 811 809 808 808 800 801 808 807 804 797 797 797 787 785 788 788 790 793 797 799 797 793 794 796 799 806 802 791 788 788 790 793 796 797 799 801 803
809 807 806 805 803 802 801 800 798 797 795 793 792 791 790 789 788 787 785 784 783 783 782 782 781 780 780 778 780 778 785 795 777 765 770 770 772 774 776 779 780 783 784 786 789 791 794 796 800 806 809 810 811 809 805 797 798 808 803 794 793 794 794 787 784 786 786 790 794 795 794 792 795 797 794 796 797 787 781 781 783 787 790 793 795 798 800 802
809 807 806 804 803 801 800 799 798 796 795 793 792 790 790 788 788 787 785 784 783 782 782 781 781 780 779 779 780 779 785 783 767 766 770 769 773 774 776 779 780 784 784 786 789 791 794 798 803 807 810 811 809 805 802 796 797 807 804 793 789 789 789 785 784 786 785 789 790 789 791 793 799 798 793 793 787 780 781 780 783 788 790 793 796 798 800 801
808 807 805 803 802 800 799 798 797 796 794 793 792 790 789 788 787 786 785 784 782 782 782 781 781 780 780 779 780 783 784 775 765 767 768 770 774 773 777 779 781 783 783 785 786 789 793 799 803 803 810 809 803 802 799 799 803 806 802 793 787 785 784 782 783 786 786 787 787 789 794 795 795 795 793 789 782 779 782 782 784 789 791 794 796 797 800 801
808 806 804 803 801 799 798 797 796 795 793 792 791 789 788 786 786 785 784 783 782 782 781 780 781 779 780 779 780 787 781 768 765 767 767 770 772 773 776 776 780 781 782 785 785 789 793 797 798 796 804 802 798 799 795 802 807 799 794 790 788 786 782 783 784 786 788 788 789 793 796 795 791 793 792 782 778 779 781 785 786 789 793 794 796 797 798 800
807 805 804 802 800 799 797 796 795 793 792 791 790 789 787 786 784 784 783 783 782 781 780 781 780 779 780 778 783 790 776 765 767 767 768 770 771 773 774 774 778 779 781 783 784 787 787 790 790 787 795 797 795 795 793 799 795 786 788 788 787 786 782 783 785 787 789 788 789 794 798 796 790 797 795 777 773 777 780 787 788 789 794 793 794 795 797 799
807 805 803 801 799 798 796 795 793 792 791 789 789 788 786 784 783 782 781 782 781 780 780 780 779 780 779 778 787 788 771 766 769 767 769 770 770 771 772 773 775 776 779 781 782 782 783 785 784 787 797 796 793 792 789 787 783 781 786 788 787 785 784 784 786 788 789 790 788 792 798 796 793 799 791 774 771 775 780 787 788 790 793 792 793 794 796 798
807 805 803 801 799 797 795 794 792 790 789 788 787 786 785 783 781 781 780 780 780 779 780 779 780 779 778 781 785 779 769 769 769 768 771 770 770 770 770 772 772 774 776 777 780 780 784 785 784 793 796 792 796 796 786 777 779 782 785 794 793 789 790 786 786 788 790 793 786 791 804 800 796 792 776 770 773 774 780 785 787 790 791 793 793 794 796 797
806 804 802 800 798 796 794 792 790 789 788 786 785 784 783 781 779 779 779 779 779 778 779 779 780 778 781 784 777 770 769 770 769 769 771 771 772 772 772 773 773 775 775 777 780 781 785 785 786 792 789 793 799 790 779 774 779 785 787 795 799 801 800 787 785 789 790 794 784 793 813 802 788 782 770 771 773 775 782 785 787 790 790 793 793 794 795 796
806 804 802 799 797 796 793 791 789 788 786 785 784 782 781 779 779 778 777 778 777 778 778 779 780 778 783 782 770 768 769 768 769 769 770 771 772 773 774 775 775 777 777 779 781 781 784 784 786 790 788 791 790 781 782 784 785 791 795 799 806 814 807 788 787 791 793 793 782 795 818 801 780 775 771 771 771 775 781 784 786 788 789 792 792 793 794 793
806 804 801 799 797 795 793 791 788 786 785 783 782 781 779 777 777 776 776 776 776 777 777 778 779 779 785 781 768 768 769 768 769 768 769 770 770 773 774 775 776 777 779 781 782 783 784 785 789 795 791 784 784 791 797 796 793 798 806 812 814 817 809 794 787 787 791 793 786 798 815 801 779 771 769 769 770 774 779 782 785 786 787 789 790 791 791 791
805 803 801 799 796 794 792 790 787 786 784 782 781 779 777 777 776 775 776 775 776 778 777 780 779 780 789 783 769 768 768 767 767 767 769 769 769 772 773 775 777 778 781 781 782 783 783 787 789 791 790 787 792 800 804 807 807 805 811 818 815 813 812 802 789 783 786 791 793 798 805 796 778 770 768 768 770 774 778 782 783 785 786 786 787 788 789 789
805 803 800 798 796 794 791 789 787 785 783 781 779 778 776 776 776 775 775 775 778 778 777 780 778 781 785 776 771 772 767 765 766 766 767 768 770 772 772 775 777 779 780 780 782 783 784 788 790 790 792 795 797 800 812 824 820 812 813 815 813 810 812 807 796 786 784 791 796 797 799 791 774 767 770 770 772 775 779 781 782 783 784 783 785 785 786 787
805 802 800 798 795 793 791 788 786 784 782 780 778 778 777 777 777 777 777 777 778 778 781 780 780 791 790 775 773 772 764 764 765 764 766 767 770 771 772 774 776 777 780 783 784 785 787 789 792 797 799 800 799 803 819 825 818 815 814 814 813 809 810 809 800 791 787 792 795 798 801 790 773 767 770 771 773 776 777 779 781 781 782 782 782 783 783 784
804 802 799 797 795 793 791 788 786 784 781 779 778 778 777 777 777 777 777 778 781 784 788 784 782 793 791 775 769 766 763 764 764 763 765 766 768 771 772 774 775 779 788 793 790 786 788 792 798 806 807 805 802 803 810 809 806 809 809 812 814 810 807 800 793 787 786 795 798 797 797 788 777 769 768 771 772 776 777 778 779 779 779 781 781 780 779 779
803 801 799 797 795 792 790 788 786 784 781 779 778 777 780 783 783 784 780 778 779 780 781 780 777 780 779 770 766 764 764 764 763 763 764 765 767 771 774 776 780 786 793 799 796 786 787 800 807 807 805 803 801 799 798 798 800 804 807 810 810 811 806 791 786 783 780 793 796 791 791 787 778 769 766 770 772 775 778 777 778 777 776 777 778 777 776 775
803 801 798 796 794 792 790 788 786 785 783 780 777 780 788 792 793 794 789 780 774 772 774 773 772 773 770 767 765 764 766 767 764 762 764 764 765 775 781 782 791 798 795 795 795 787 791 807 806 797 797 798 798 797 795 798 802 803 808 810 808 811 804 785 782 782 777 788 791 787 793 790 778 770 767 770 772 771 771 774 774 772 773 773 774 775 773 772
803 800 797 795 793 792 790 788 787 786 784 781 779 784 790 793 793 794 793 789 778 770 773 771 771 771 764 763 764 764 771 775 770 764 763 764 768 779 785 787 797 801 794 793 799 800 805 808 798 790 792 794 795 795 797 800 803 805 808 812 809 806 801 786 779 782 781 787 790 788 794 790 778 773 769 768 767 763 761 764 765 766 770 770 770 771 771 772
802 799 797 795 792 791 789 788 787 786 785 783 784 787 790 791 791 790 793 796 786 773 771 772 772 771 765 764 762 764 774 778 775 768 761 765 773 778 784 791 796 798 797 798 803 811 814 802 789 788 789 792 796 795 798 801 802 806 807 810 808 800 803 797 784 786 786 787 791 790 793 789 778 774 767 761 760 758 755 757 759 761 764 764 764 765 767 771
802 799 797 794 792 790 788 788 787 787 787 786 787 789 790 790 789 789 790 795 792 776 768 768 767 767 765 760 758 764 772 771 771 767 758 764 775 778 782 788 795 799 798 797 800 808 807 791 784 788 789 792 797 795 799 803 803 803 801 805 803 795 798 797 789 790 791 791 789 789 798 790 777 777 768 757 759 758 755 758 759 758 758 759 761 762 763 766
801 799 796 793 792 789 788 788 787 788 788 787 789 788 789 789 787 788 790 797 798 780 768 766 765 764 758 756 758 759 766 767 763 760 755 758 769 777 782 783 790 799 798 797 801 805 799 785 782 789 789 792 797 797 797 799 803 803 794 792 792 789 790 789 790 796 802 803 789 790 810 801 777 777 771 761 764 761 756 759 757 757 758 759 761 761 761 763
801 799 796 794 792 788 787 787 787 788 787 787 788 787 788 788 787 787 791 804 803 783 773 771 769 765 756 759 758 757 773 772 755 752 754 755 758 767 781 785 786 792 792 795 799 799 792 782 781 787 789 792 797 798 793 793 805 805 788 781 783 786 787 787 790 796 804 804 791 790 810 808 785 772 769 768 768 762 760 760 756 758 759 757 758 760 761 763
801 799 796 795 792 789 788 788 789 788 787 788 787 787 787 785 787 785 794 819 811 782 776 775 770 765 759 760 756 764 786 775 754 753 751 754 755 759 778 787 787 788 785 792 802 796 787 783 785 786 789 794 796 795 789 788 802 799 780 776 782 783 784 785 786 793 797 798 797 796 800 810 800 778 774 778 772 764 762 762 759 759 759 758 758 759 760 761
800 798 796 794 793 792 790 790 790 787 787 788 785 787 786 784 787 785 804 834 813 776 775 773 762 758 756 758 757 765 775 767 766 765 748 750 757 761 778 784 782 785 780 791 805 795 783 785 786 785 790 796 791 786 782 784 793 787 773 777 782 782 784 784 785 791 796 796 804 804 799 812 808 781 776 780 772 769 766 762 760 757 757 758 757 758 758 758
799 797 795 793 793 792 791 791 789 787 787 786 785 787 784 784 786 790 815 831 800 772 774 769 761 762 761 763 764 765 765 764 772 766 749 754 757 759 776 777 776 784 780 786 796 789 781 780 778 782 789 790 781 776 776 781 784 777 773 778 782 784 787 789 789 789 794 799 806 804 799 810 807 785 782 783 777 777 771 762 760 757 755 753 751 752 754 755
797 796 794 792 791 791 791 790 788 787 787 785 786 785 783 786 791 810 835 825 793 780 774 767 768 771 770 773 774 771 770 770 767 761 758 762 759 759 768 769 772 783 785 786 789 784 778 774 774 777 779 776 772 772 774 775 774 773 777 781 783 785 785 790 794 790 798 807 805 801 799 806 808 795 791 789 781 779 774 766 763 759 755 751 748 750 750 751
796 795 793 791 790 790 790 789 786 787 786 785 786 783 785 793 803 826 835 808 790 787 777 774 777 774 775 781 781 775 774 773 766 767 770 769 769 771 773 776 779 788 794 792 789 786 780 778 777 771 766 768 770 773 774 773 773 777 782 786 792 796 792 794 795 794 808 815 804 801 802 805 809 800 791 787 778 775 776 772 767 762 756 751 749 748 747 747
794 793 792 790 789 789 788 788 786 786 786 785 785 784 792 808 818 824 815 795 794 793 783 784 783 777 780 783 781 776 775 776 770 770 775 776 780 779 780 786 788 798 809 802 795 793 785 778 775 770 764 765 772 779 780 776 778 783 787 794 808 816 815 814 811 811 818 813 802 803 802 801 803 794 785 783 776 773 774 772 768 763 756 751 749 748 746 745
792 790 789 788 787 786 786 786 786 786 786 785 787 788 799 820 825 814 803 798 798 790 783 785 782 780 784 784 782 777 775 777 772 772 776 778 784 782 780 781 781 792 805 805 803 801 793 780 772 774 770 762 769 782 786 784 784 788 790 796 810 823 833 834 829 830 826 809 801 803 801 800 799 788 780 779 776 774 772 769 766 762 758 755 752 750 748 747
790 788 787 785 785 785 784 785 786 786 786 785 789 797 810 825 820 807 803 799 794 787 784 786 784 783 785 785 783 778 779 779 772 774 778 780 787 788 783 782 780 784 792 802 805 803 808 799 778 774 772 764 767 772 775 778 782 785 783 788 799 808 821 828 823 822 820 811 805 802 800 801 798 785 776 773 772 772 770 768 765 761 760 757 754 752 751 750
788 786 784 783 783 783 783 784 785 785 786 786 793 806 817 820 813 807 804 797 792 790 786 785 784 785 786 785 781 776 778 780 775 776 780 782 788 787 782 781 781 782 789 803 805 802 813 806 775 766 767 763 765 763 762 772 782 786 782 787 794 790 793 808 814 813 814 814 810 803 799 796 788 777 772 774 773 772 772 769 766 765 762 759 757 755 754 752
786 784 783 782 783 783 783 784 784 785 786 789 800 812 813 808 805 804 799 794 793 793 791 789 786 791 794 789 784 779 775 777 779 781 783 785 785 783 780 776 774 777 781 793 800 800 809 799 770 765 767 759 761 760 758 768 780 787 788 787 786 778 777 797 814 815 817 819 814 808 801 792 787 780 773 775 774 773 776 773 770 769 765 761 760 759 757 755
784 783 782 783 783 783 784 784 785 786 787 792 804 811 807 800 798 797 794 791 791 790 795 798 793 794 799 795 790 784 778 779 782 784 787 787 783 778 776 771 768 770 767 775 787 789 797 795 772 766 769 759 756 759 758 760 768 781 788 780 776 779 780 791 809 816 823 826 815 810 810 803 800 790 774 771 772 774 779 775 771 770 766 764 764 761 760 757
784 783 783 784 784 784 785 785 785 786 789 797 806 808 805 800 795 793 791 790 790 790 796 802 796 792 797 800 794 785 782 785 786 787 789 789 784 775 772 770 765 765 761 765 778 780 788 796 779 767 770 763 756 762 769 765 762 769 773 768 774 789 792 796 808 815 824 832 821 814 817 810 802 792 779 776 775 776 780 776 772 772 770 769 767 764 762 759
785 785 786 786 785 785 786 786 786 787 792 802 809 806 802 799 793 790 789 789 791 793 797 799 795 793 794 795 793 786 785 787 788 789 789 791 787 772 767 769 765 764 762 763 774 777 782 795 790 771 766 766 762 767 778 777 767 764 767 768 774 785 790 795 803 805 814 828 828 820 814 803 793 788 782 777 775 776 778 776 775 775 773 772 769 766 764 762
786 788 789 787 785 786 786 786 787 791 797 805 807 803 800 798 793 788 787 788 789 791 795 796 795 796 793 790 791 788 785 786 786 788 789 788 785 774 765 766 766 764 762 763 770 774 779 793 795 777 766 772 774 770 774 777 774 773 776 780 780 782 787 791 796 800 804 816 827 826 816 799 786 783 779 774 774 776 776 774 777 776 773 772 770 768 766 764
789 791 792 787 786 788 787 789 793 797 801 805 805 801 798 795 792 790 786 786 786 785 788 792 792 794 793 790 790 787 785 785 784 787 788 784 785 781 766 760 765 766 765 769 772 772 779 790 794 786 779 781 775 765 766 769 770 772 775 777 779 781 788 798 806 806 802 807 818 823 815 796 781 778 775 773 774 776 776 775 776 776 774 773 770 769 768 766
791 794 793 788 788 788 789 795 801 802 802 802 800 798 795 792 792 792 787 786 787 784 784 788 789 791 791 789 787 786 786 786 785 786 786 781 782 779 764 757 762 763 763 770 771 765 769 783 791 790 784 778 769 763 767 769 766 766 767 771 776 779 783 796 806 802 801 810 816 818 814 795 778 775 774 774 775 777 777 776 776 777 775 773 772 770 769 768
795 795 791 789 789 788 793 801 804 803 801 799 796 795 793 793 793 792 790 789 789 787 787 788 786 786 787 785 784 785 786 786 786 783 782 782 776 768 761 758 760 762 762 767 768 762 767 781 791 790 782 771 764 761 763 764 764 766 768 770 773 775 775 782 790 790 796 808 809 812 814 795 777 776 776 776 778 778 778 776 776 777 774 773 773 771 770 769
803 800 793 790 789 789 797 804 805 804 802 799 798 796 793 792 792 792 792 791 788 788 790 788 784 784 784 782 782 784 785 787 787 782 781 783 773 760 757 757 759 761 761 762 762 761 770 785 792 797 799 791 782 778 773 767 767 771 773 770 769 771 774 778 785 787 793 802 800 803 808 794 781 780 778 778 780 780 780 777 776 776 775 775 774 772 771 770
804 802 797 793 789 791 798 803 803 804 804 802 802 799 796 793 789 788 790 789 785 786 789 787 782 782 782 782 783 783 782 784 787 784 781 781 772 758 755 756 757 758 756 755 752 753 770 784 786 796 810 813 807 802 791 780 777 777 773 769 768 772 774 778 786 788 793 804 802 796 797 793 786 783 781 781 782 780 780 779 777 777 776 776 776 774 772 770
802 800 800 796 792 794 799 801 802 804 805 806 804 800 799 797 789 785 786 788 785 784 786 785 782 782 784 785 786 786 783 782 785 785 783 782 774 763 756 755 757 755 752 751 750 755 770 781 782 786 793 798 796 790 785 782 781 779 773 768 769 773 772 775 784 785 787 800 801 789 790 793 789 787 785 785 784 781 780 780 779 778 777 777 776 775 773 771
804 804 805 803 800 800 801 802 805 805 805 807 806 802 802 801 794 788 786 786 785 784 785 785 784 786 789 788 788 790 788 786 785 784 785 783 776 767 760 756 757 755 751 750 752 758 770 780 784 783 780 782 783 779 779 783 781 777 774 769 768 773 774 775 781 782 781 791 794 786 788 791 787 786 786 785 784 782 780 780 778 778 778 777 776 775 774 773
806 807 808 808 807 807 806 806 807 807 806 806 805 806 806 804 800 797 792 787 784 785 787 789 788 789 790 789 789 792 793 791 789 788 787 784 779 773 765 759 759 756 754 756 755 759 773 782 784 783 779 778 779 778 778 781 779 775 774 772 770 772 773 771 779 782 776 779 784 783 784 784 780 782 783 780 779 778 776 777 776 777 778 777 777 776 775 775
808 809 809 809 809 809 809 808 807 807 807 806 806 808 810 809 807 804 799 794 791 790 791 793 792 790 789 786 787 795 798 794 794 793 790 787 784 781 777 772 765 760 759 762 761 763 775 783 784 784 782 777 778 779 779 779 779 776 776 776 774 774 773 772 780 783 777 779 785 783 782 779 775 778 778 775 775 775 775 777 777 778 779 778 778 777 776 776
812 813 812 810 809 809 808 808 808 807 809 810 811 812 812 812 813 809 802 799 800 798 795 795 795 792 789 786 787 795 797 793 794 793 790 790 787 783 785 782 774 769 766 767 768 767 772 783 786 784 783 780 777 777 779 781 781 778 777 777 774 773 774 774 778 780 777 781 786 785 784 779 773 776 778 777 777 776 777 779 779 779 779 778 778 777 776 776
816 816 815 812 811 811 810 810 810 810 813 817 817 815 814 814 815 812 805 799 801 802 800 800 799 794 791 789 790 793 793 792 793 789 786 789 786 782 783 782 777 776 773 772 774 770 772 782 785 783 787 786 778 777 778 776 775 777 778 778 775 775 775 774 775 775 772 775 783 786 784 777 772 776 779 778 778 778 779 781 781 780 779 778 778 777 776 775
816 816 817 814 813 814 815 814 813 813 817 821 819 817 816 815 813 812 807 799 797 799 798 799 798 793 791 791 792 792 791 789 789 786 784 784 782 780 781 780 777 777 776 776 778 778 778 782 784 789 795 790 781 781 777 774 782 788 782 776 775 775 775 774 772 772 770 771 777 780 776 772 772 774 776 778 780 780 780 781 779 778 778 778 777 776 775 775